Time,TemperatureF,DewpointF,PressureIn,WindDirection,WindDirectionDegrees,WindSpeedMPH,WindSpeedGustMPH,Humidity,HourlyPrecipIn,Conditions,Clouds,dailyrainin,SoftwareType,DateUTC
2013-03-23 00:01:00,28.0,20.5,-100.00,WNW,293,5.0,10.0,73,0.00,,,0.08,meteohub,2013-03-23 04:01:00,
2013-03-23 00:02:00,27.3,19.8,-100.00,NNW,334,3.0,10.0,73,0.00,,,0.08,meteohub,2013-03-23 04:02:00,
2013-03-23 00:03:00,27.9,20.7,-100.00,NW,316,8.0,10.0,74,0.00,,,0.08,meteohub,2013-03-23 04:03:00,
2013-03-23 00:08:00,27.7,20.5,-100.00,NNW,344,5.0,10.0,74,0.00,,,0.08,meteohub,2013-03-23 04:08:00,
2013-03-23 00:13:00,27.1,19.9,-100.00,NNW,329,7.0,15.0,74,0.00,,,0.00,meteohub,2013-03-23 04:13:00,
2013-03-23 00:18:00,27.7,20.5,-100.00,NW,315,6.0,15.0,74,0.00,,,0.00,meteohub,2013-03-23 04:18:00,
2013-03-23 00:23:00,27.7,20.1,-100.00,NW,312,10.0,15.0,73,0.00,,,0.00,meteohub,2013-03-23 04:23:00,
2013-03-23 00:29:00,27.7,20.1,-100.00,NW,326,6.0,16.0,73,0.00,,,0.00,meteohub,2013-03-23 04:29:00,
2013-03-23 00:34:00,27.1,19.6,-100.00,NW,324,6.0,15.0,73,0.00,,,0.00,meteohub,2013-03-23 04:34:00,
2013-03-23 00:39:00,27.1,19.4,-100.00,NW,316,9.0,15.0,72,0.00,,,0.00,meteohub,2013-03-23 04:39:00,
2013-03-23 00:44:00,27.3,19.6,-100.00,NW,312,8.0,13.0,72,0.00,,,0.00,meteohub,2013-03-23 04:44:00,
2013-03-23 00:49:00,27.0,18.9,-100.00,WNW,302,14.0,14.0,71,0.00,,,0.00,meteohub,2013-03-23 04:49:00,
2013-03-23 00:54:00,27.1,19.0,-100.00,NNW,336,7.0,15.0,71,0.00,,,0.00,meteohub,2013-03-23 04:54:00,
2013-03-23 00:59:00,25.3,17.2,-100.00,WNW,282,11.0,15.0,71,0.00,,,0.00,meteohub,2013-03-23 04:59:00,
2013-03-23 01:04:00,26.6,18.5,-100.00,NW,322,8.0,15.0,71,0.00,,,0.00,meteohub,2013-03-23 05:04:00,
2013-03-23 01:09:00,26.6,18.5,-100.00,WNW,292,11.0,15.0,71,0.00,,,0.00,meteohub,2013-03-23 05:09:00,
2013-03-23 01:14:00,27.3,19.6,-100.00,WNW,302,9.0,16.0,72,0.00,,,0.00,meteohub,2013-03-23 05:14:00,
2013-03-23 01:19:00,27.1,19.0,-100.00,NNW,338,6.0,16.0,71,0.00,,,0.00,meteohub,2013-03-23 05:19:00,
2013-03-23 01:25:00,27.3,19.2,-100.00,NW,326,5.0,18.0,71,0.00,,,0.00,meteohub,2013-03-23 05:25:00,
2013-03-23 01:30:00,27.3,19.6,-100.00,NW,320,5.0,18.0,72,0.00,,,0.00,meteohub,2013-03-23 05:30:00,
2013-03-23 01:35:00,26.2,18.5,-100.00,NW,319,6.0,17.0,72,0.00,,,0.00,meteohub,2013-03-23 05:35:00,
2013-03-23 01:40:00,27.0,19.2,-100.00,WNW,300,7.0,14.0,72,0.00,,,0.00,meteohub,2013-03-23 05:40:00,
2013-03-23 01:45:00,26.8,19.0,-100.00,NW,320,4.0,11.0,72,0.00,,,0.00,meteohub,2013-03-23 05:45:00,
2013-03-23 01:51:00,27.9,19.9,-100.00,NW,316,6.0,12.0,72,0.00,,,0.00,meteohub,2013-03-23 05:51:00,
2013-03-23 01:56:00,26.6,18.9,-100.00,NNW,344,6.0,13.0,72,0.00,,,0.00,meteohub,2013-03-23 05:56:00,
2013-03-23 02:01:00,26.6,19.0,-100.00,NW,315,9.0,13.0,73,0.00,,,0.00,meteohub,2013-03-23 06:01:00,
2013-03-23 02:06:00,27.3,19.8,-100.00,NNW,327,9.0,13.0,73,0.00,,,0.00,meteohub,2013-03-23 06:06:00,
2013-03-23 02:11:00,27.7,20.1,-100.00,NW,310,5.0,13.0,73,0.00,,,0.00,meteohub,2013-03-23 06:11:00,
2013-03-23 02:16:00,27.1,19.6,-100.00,NW,316,6.0,13.0,73,0.00,,,0.00,meteohub,2013-03-23 06:16:00,
2013-03-23 02:21:00,26.8,19.6,-100.00,NW,305,4.0,13.0,74,0.00,,,0.00,meteohub,2013-03-23 06:21:00,
2013-03-23 02:27:00,27.1,19.9,-100.00,NW,317,3.0,11.0,74,0.00,,,0.00,meteohub,2013-03-23 06:27:00,
2013-03-23 02:32:00,27.7,20.5,-100.00,NW,313,3.0,11.0,74,0.00,,,0.00,meteohub,2013-03-23 06:32:00,
2013-03-23 02:37:00,26.8,19.9,-100.00,NW,312,4.0,11.0,75,0.00,,,0.00,meteohub,2013-03-23 06:37:00,
2013-03-23 02:42:00,26.2,19.4,-100.00,NW,320,3.0,10.0,75,0.00,,,0.00,meteohub,2013-03-23 06:42:00,
2013-03-23 02:47:00,27.7,20.8,-100.00,WNW,302,0.0,7.0,75,0.00,,,0.00,meteohub,2013-03-23 06:47:00,
2013-03-23 02:52:00,26.8,19.9,-100.00,WNW,302,0.0,6.0,75,0.00,,,0.00,meteohub,2013-03-23 06:52:00,
2013-03-23 02:57:00,26.4,19.9,-100.00,NW,310,0.0,5.0,76,0.00,,,0.00,meteohub,2013-03-23 06:57:00,
2013-03-23 03:02:00,27.7,21.0,-100.00,NW,310,0.0,5.0,76,0.00,,,0.00,meteohub,2013-03-23 07:02:00,
2013-03-23 03:07:00,27.1,20.3,-100.00,NW,310,0.0,5.0,75,0.00,,,0.00,meteohub,2013-03-23 07:07:00,
2013-03-23 03:12:00,26.8,19.9,-100.00,NW,310,0.0,5.0,75,0.00,,,0.00,meteohub,2013-03-23 07:12:00,
2013-03-23 03:17:00,26.8,19.9,-100.00,NW,310,0.0,0.0,75,0.00,,,0.00,meteohub,2013-03-23 07:17:00,
2013-03-23 03:22:00,26.8,19.9,-100.00,NW,310,0.0,0.0,75,0.00,,,0.00,meteohub,2013-03-23 07:22:00,
2013-03-23 03:27:00,27.1,20.3,-100.00,NW,310,0.0,0.0,75,0.00,,,0.00,meteohub,2013-03-23 07:27:00,
2013-03-23 03:32:00,26.1,19.6,-100.00,NW,310,0.0,0.0,76,0.00,,,0.00,meteohub,2013-03-23 07:32:00,
2013-03-23 03:37:00,26.6,20.1,-100.00,NW,310,0.0,0.0,76,0.00,,,0.00,meteohub,2013-03-23 07:37:00,
2013-03-23 03:42:00,27.1,20.7,-100.00,NW,310,0.0,0.0,76,0.00,,,0.00,meteohub,2013-03-23 07:42:00,
2013-03-23 03:48:00,26.6,20.3,-100.00,NW,310,0.0,0.0,77,0.00,,,0.00,meteohub,2013-03-23 07:48:00,
2013-03-23 03:53:00,26.1,19.8,-100.00,NW,310,0.0,0.0,77,0.00,,,0.00,meteohub,2013-03-23 07:53:00,
2013-03-23 03:58:00,25.9,19.9,-100.00,West,267,0.0,0.0,78,0.00,,,0.00,meteohub,2013-03-23 07:58:00,
2013-03-23 04:03:00,26.2,20.7,-100.00,West,277,0.0,0.0,79,0.00,,,0.00,meteohub,2013-03-23 08:03:00,
2013-03-23 04:08:00,26.6,21.0,-100.00,West,277,0.0,3.0,79,0.00,,,0.00,meteohub,2013-03-23 08:08:00,
2013-03-23 04:13:00,26.1,20.5,-100.00,West,277,0.0,3.0,79,0.00,,,0.00,meteohub,2013-03-23 08:13:00,
2013-03-23 04:19:00,25.5,20.3,-100.00,West,277,0.0,0.0,80,0.00,,,0.00,meteohub,2013-03-23 08:19:00,
2013-03-23 04:24:00,26.1,21.0,-100.00,WNW,284,0.0,4.0,81,0.00,,,0.00,meteohub,2013-03-23 08:24:00,
2013-03-23 04:29:00,26.2,21.2,-100.00,WNW,284,0.0,4.0,81,0.00,,,0.00,meteohub,2013-03-23 08:29:00,
2013-03-23 04:34:00,25.9,20.8,-100.00,SSW,213,0.0,6.0,81,0.00,,,0.00,meteohub,2013-03-23 08:34:00,
2013-03-23 04:39:00,25.5,20.5,-100.00,SSW,213,0.0,6.0,81,0.00,,,0.00,meteohub,2013-03-23 08:39:00,
2013-03-23 04:44:00,25.7,21.0,-100.00,SSW,213,0.0,6.0,82,0.00,,,0.00,meteohub,2013-03-23 08:44:00,
2013-03-23 04:50:00,25.3,20.7,-100.00,SSW,213,0.0,0.0,82,0.00,,,0.00,meteohub,2013-03-23 08:50:00,
2013-03-23 04:55:00,25.9,21.2,-100.00,SSW,213,0.0,0.0,82,0.00,,,0.00,meteohub,2013-03-23 08:55:00,
2013-03-23 05:00:00,25.0,20.5,-100.00,North,11,0.0,3.0,83,0.00,,,0.00,meteohub,2013-03-23 09:00:00,
2013-03-23 05:05:00,25.3,20.8,-100.00,North,11,0.0,3.0,83,0.00,,,0.00,meteohub,2013-03-23 09:05:00,
2013-03-23 05:10:00,25.9,21.7,-100.00,North,11,0.0,3.0,84,0.00,,,0.00,meteohub,2013-03-23 09:10:00,
2013-03-23 05:15:00,25.5,21.4,-100.00,North,11,0.0,3.0,84,0.00,,,0.00,meteohub,2013-03-23 09:15:00,
2013-03-23 05:20:00,26.1,22.1,-100.00,North,11,0.0,0.0,85,0.00,,,0.00,meteohub,2013-03-23 09:20:00,
2013-03-23 05:25:00,26.2,22.3,-100.00,South,185,0.0,0.0,85,0.00,,,0.00,meteohub,2013-03-23 09:25:00,
2013-03-23 05:30:00,25.9,21.7,-100.00,South,185,2.0,4.0,84,0.00,,,0.00,meteohub,2013-03-23 09:30:00,
2013-03-23 05:35:00,25.9,21.7,-100.00,SSE,153,0.0,4.0,84,0.00,,,0.00,meteohub,2013-03-23 09:35:00,
2013-03-23 05:40:00,27.0,23.4,-100.00,SSE,153,0.0,3.0,86,0.00,,,0.00,meteohub,2013-03-23 09:40:00,
2013-03-23 05:46:00,26.6,23.7,-100.00,SSW,198,0.0,3.0,89,0.00,,,0.00,meteohub,2013-03-23 09:46:00,
2013-03-23 05:51:00,27.3,24.8,-100.00,SSW,198,0.0,3.0,90,0.00,,,0.00,meteohub,2013-03-23 09:51:00,
2013-03-23 05:56:00,28.4,26.4,-100.00,SSW,198,0.0,3.0,92,0.00,,,0.00,meteohub,2013-03-23 09:56:00,
2013-03-23 06:01:00,28.4,27.0,-100.00,NNW,336,0.0,2.0,94,0.00,,,0.00,meteohub,2013-03-23 10:01:00,
2013-03-23 06:06:00,28.4,27.0,-100.00,NW,312,4.0,4.0,94,0.00,,,0.00,meteohub,2013-03-23 10:06:00,
2013-03-23 06:11:00,27.0,24.4,-100.00,NNW,329,4.0,6.0,90,0.00,,,0.00,meteohub,2013-03-23 10:11:00,
2013-03-23 06:16:00,27.3,23.7,-100.00,NW,316,6.0,7.0,86,0.00,,,0.00,meteohub,2013-03-23 10:16:00,
2013-03-23 06:21:00,27.1,23.0,-100.00,NW,309,3.0,7.0,84,0.00,,,0.00,meteohub,2013-03-23 10:21:00,
2013-03-23 06:26:00,27.3,23.2,-100.00,NNW,327,4.0,9.0,84,0.00,,,0.00,meteohub,2013-03-23 10:26:00,
2013-03-23 06:31:00,27.1,22.6,-100.00,NW,310,3.0,9.0,83,0.00,,,0.00,meteohub,2013-03-23 10:31:00,
2013-03-23 06:36:00,28.4,23.9,-100.00,NW,323,5.0,9.0,83,0.00,,,0.00,meteohub,2013-03-23 10:36:00,
2013-03-23 06:41:00,27.7,23.2,-100.00,NW,309,5.0,8.0,83,0.00,,,0.00,meteohub,2013-03-23 10:41:00,
2013-03-23 06:46:00,27.9,23.4,-100.00,NW,322,5.0,8.0,83,0.00,,,0.00,meteohub,2013-03-23 10:46:00,
2013-03-23 06:52:00,27.7,23.2,-100.00,NW,309,5.0,8.0,83,0.00,,,0.00,meteohub,2013-03-23 10:52:00,
2013-03-23 06:57:00,27.7,23.2,-100.00,West,270,7.0,9.0,83,0.00,,,0.00,meteohub,2013-03-23 10:57:00,
2013-03-23 07:02:00,27.9,23.4,-100.00,WNW,295,5.0,9.0,83,0.00,,,0.00,meteohub,2013-03-23 11:02:00,
2013-03-23 07:07:00,27.7,23.2,-100.00,NNW,331,7.0,10.0,83,0.00,,,0.00,meteohub,2013-03-23 11:07:00,
2013-03-23 07:12:00,28.4,23.9,-100.00,NW,305,5.0,10.0,83,0.00,,,0.00,meteohub,2013-03-23 11:12:00,
2013-03-23 07:13:00,28.4,23.9,-100.00,NW,305,5.0,10.0,83,0.00,,,0.00,meteohub,2013-03-23 11:13:00,
2013-03-23 07:22:00,27.9,23.7,-100.00,NNW,336,4.0,13.0,84,0.00,,,0.00,meteohub,2013-03-23 11:22:00,
2013-03-23 07:27:00,28.0,24.1,-100.00,NW,319,6.0,13.0,85,0.00,,,0.00,meteohub,2013-03-23 11:27:00,
2013-03-23 07:32:00,27.7,24.1,-100.00,NW,306,7.0,13.0,86,0.00,,,0.00,meteohub,2013-03-23 11:32:00,
2013-03-23 07:37:00,28.0,24.4,-100.00,NW,315,7.0,15.0,86,0.00,,,0.00,meteohub,2013-03-23 11:37:00,
2013-03-23 07:42:00,28.0,24.4,-100.00,NW,316,8.0,15.0,86,0.00,,,0.00,meteohub,2013-03-23 11:42:00,
2013-03-23 07:47:00,27.9,23.9,-100.00,NW,309,9.0,11.0,85,0.00,,,0.00,meteohub,2013-03-23 11:47:00,
2013-03-23 07:53:00,27.9,23.7,-100.00,NW,324,9.0,18.0,84,0.00,,,0.00,meteohub,2013-03-23 11:53:00,
2013-03-23 07:58:00,28.9,24.1,-100.00,NW,313,11.0,19.0,82,0.00,,,0.00,meteohub,2013-03-23 11:58:00,
2013-03-23 08:03:00,29.1,23.7,-100.00,West,278,8.0,19.0,80,0.00,,,0.00,meteohub,2013-03-23 12:03:00,
2013-03-23 08:08:00,28.2,22.6,-100.00,WNW,295,12.0,19.0,79,0.00,,,0.00,meteohub,2013-03-23 12:08:00,
2013-03-23 08:13:00,29.8,23.5,-100.00,NNW,330,13.0,22.0,77,0.00,,,0.00,meteohub,2013-03-23 12:13:00,
2013-03-23 08:18:00,29.5,22.8,-100.00,NW,307,9.0,22.0,76,0.00,,,0.00,meteohub,2013-03-23 12:18:00,
2013-03-23 08:23:00,29.1,22.3,-100.00,NW,310,11.0,22.0,75,0.00,,,0.00,meteohub,2013-03-23 12:23:00,
2013-03-23 08:28:00,28.8,21.6,-100.00,NW,312,11.0,21.0,74,0.00,,,0.00,meteohub,2013-03-23 12:28:00,
2013-03-23 08:33:00,30.4,23.2,-100.00,WNW,295,8.0,21.0,74,0.00,,,0.00,meteohub,2013-03-23 12:33:00,
2013-03-23 08:39:00,29.1,21.6,-100.00,NNW,343,10.0,20.0,73,0.00,,,0.00,meteohub,2013-03-23 12:39:00,
2013-03-23 08:44:00,29.8,22.3,-100.00,NW,309,13.0,22.0,73,0.00,,,0.00,meteohub,2013-03-23 12:44:00,
2013-03-23 08:49:00,30.0,22.5,-100.00,NW,319,8.0,22.0,73,0.00,,,0.00,meteohub,2013-03-23 12:49:00,
2013-03-23 08:54:00,29.3,21.4,-100.00,NNW,330,8.0,22.0,72,0.00,,,0.00,meteohub,2013-03-23 12:54:00,
2013-03-23 08:59:00,31.3,23.7,-100.00,West,279,10.0,18.0,73,0.00,,,0.00,meteohub,2013-03-23 12:59:00,
2013-03-23 09:04:00,32.4,24.3,-100.00,North,355,6.0,17.0,72,0.00,,,0.00,meteohub,2013-03-23 13:04:00,
2013-03-23 09:10:00,31.5,23.2,-100.00,NW,305,5.0,17.0,71,0.00,,,0.00,meteohub,2013-03-23 13:10:00,
2013-03-23 09:15:00,31.3,22.6,-100.00,NW,306,17.0,22.0,70,0.00,,,0.00,meteohub,2013-03-23 13:15:00,
2013-03-23 09:20:00,31.5,22.1,-100.00,NNW,340,10.0,22.0,68,0.00,,,0.00,meteohub,2013-03-23 13:20:00,
2013-03-23 09:25:00,32.5,23.2,-100.00,WNW,291,10.0,19.0,68,0.00,,,0.00,meteohub,2013-03-23 13:25:00,
2013-03-23 09:30:00,31.5,21.7,-100.00,NNW,348,9.0,19.0,67,0.00,,,0.00,meteohub,2013-03-23 13:30:00,
2013-03-23 09:35:00,32.5,22.8,-100.00,WNW,299,13.0,17.0,67,0.00,,,0.00,meteohub,2013-03-23 13:35:00,
2013-03-23 09:41:00,31.8,22.1,-100.00,NW,315,13.0,20.0,67,0.00,,,0.00,meteohub,2013-03-23 13:41:00,
2013-03-23 09:46:00,31.3,21.2,-100.00,NW,306,9.0,20.0,66,0.00,,,0.00,meteohub,2013-03-23 13:46:00,
2013-03-23 09:51:00,31.5,21.4,-100.00,WNW,295,9.0,20.0,66,0.00,,,0.00,meteohub,2013-03-23 13:51:00,
2013-03-23 09:56:00,33.1,22.3,-100.00,NW,323,3.0,20.0,64,0.00,,,0.00,meteohub,2013-03-23 13:56:00,
2013-03-23 10:01:00,32.0,20.8,-100.00,NW,319,6.0,20.0,63,0.00,,,0.00,meteohub,2013-03-23 14:01:00,
2013-03-23 10:06:00,31.8,20.3,-100.00,NW,319,7.0,16.0,62,0.00,,,0.00,meteohub,2013-03-23 14:06:00,
2013-03-23 10:11:00,32.7,19.9,-100.00,NW,319,10.0,16.0,59,0.00,,,0.00,meteohub,2013-03-23 14:11:00,
2013-03-23 10:16:00,33.6,20.5,-100.00,WNW,303,18.0,21.0,58,0.00,,,0.00,meteohub,2013-03-23 14:16:00,
2013-03-23 10:22:00,33.1,18.7,-100.00,NW,307,18.0,21.0,55,0.00,,,0.00,meteohub,2013-03-23 14:22:00,
2013-03-23 10:27:00,33.1,18.7,-100.00,NW,320,10.0,24.0,55,0.00,,,0.00,meteohub,2013-03-23 14:27:00,
2013-03-23 10:32:00,33.3,19.2,-100.00,NNW,340,12.0,24.0,56,0.00,,,0.00,meteohub,2013-03-23 14:32:00,
2013-03-23 10:38:00,32.7,18.3,-100.00,NNW,341,8.0,23.0,55,0.00,,,0.00,meteohub,2013-03-23 14:38:00,
2013-03-23 10:43:00,32.5,18.5,-100.00,NW,317,11.0,26.0,56,0.00,,,0.00,meteohub,2013-03-23 14:43:00,
2013-03-23 10:49:00,32.4,18.0,-100.00,NW,316,12.0,26.0,55,0.00,,,0.00,meteohub,2013-03-23 14:49:00,
2013-03-23 10:54:00,33.1,19.6,-100.00,NW,326,10.0,20.0,57,0.00,,,0.00,meteohub,2013-03-23 14:54:00,
2013-03-23 10:59:00,33.1,19.6,-100.00,North,358,7.0,20.0,57,0.00,,,0.00,meteohub,2013-03-23 14:59:00,
2013-03-23 11:04:00,32.7,19.2,-100.00,NNE,19,11.0,19.0,57,0.00,,,0.00,meteohub,2013-03-23 15:04:00,
2013-03-23 11:10:00,33.3,19.8,-100.00,NNW,329,15.0,19.0,57,0.00,,,0.00,meteohub,2013-03-23 15:10:00,
2013-03-23 11:15:00,32.7,19.6,-100.00,WNW,300,10.0,22.0,58,0.00,,,0.00,meteohub,2013-03-23 15:15:00,
2013-03-23 11:20:00,33.8,18.9,-100.00,WNW,303,10.0,22.0,54,0.00,,,0.00,meteohub,2013-03-23 15:20:00,
2013-03-23 11:26:00,32.7,19.2,-100.00,NW,322,10.0,22.0,57,0.00,,,0.00,meteohub,2013-03-23 15:26:00,
2013-03-23 11:31:00,34.2,19.8,-100.00,NNW,329,6.0,20.0,55,0.00,,,0.00,meteohub,2013-03-23 15:31:00,
2013-03-23 11:36:00,33.8,17.6,-100.00,NW,309,9.0,18.0,51,0.00,,,0.00,meteohub,2013-03-23 15:36:00,
2013-03-23 11:41:00,34.5,19.2,-100.00,NW,309,7.0,26.0,53,0.00,,,0.00,meteohub,2013-03-23 15:41:00,
2013-03-23 11:46:00,34.5,19.2,-100.00,North,4,10.0,26.0,53,0.00,,,0.00,meteohub,2013-03-23 15:46:00,
2013-03-23 11:51:00,33.6,17.8,-100.00,WNW,293,11.0,26.0,52,0.00,,,0.00,meteohub,2013-03-23 15:51:00,
2013-03-23 11:56:00,32.7,17.4,-100.00,NW,310,10.0,23.0,53,0.01,,,0.01,meteohub,2013-03-23 15:56:00,
2013-03-23 12:02:00,34.7,19.4,-100.00,NW,312,11.0,23.0,53,0.01,,,0.01,meteohub,2013-03-23 16:02:00,
2013-03-23 12:07:00,35.1,19.6,-100.00,NW,317,13.0,22.0,53,0.01,,,0.01,meteohub,2013-03-23 16:07:00,
2013-03-23 12:12:00,35.6,19.8,-100.00,NW,313,11.0,22.0,52,0.01,,,0.01,meteohub,2013-03-23 16:12:00,
2013-03-23 12:17:00,34.5,18.3,-100.00,NW,326,7.0,20.0,51,0.01,,,0.01,meteohub,2013-03-23 16:17:00,
2013-03-23 12:22:00,34.9,19.0,-100.00,NW,310,10.0,20.0,52,0.01,,,0.01,meteohub,2013-03-23 16:22:00,
2013-03-23 12:27:00,34.3,18.5,-100.00,WNW,300,9.0,19.0,52,0.01,,,0.01,meteohub,2013-03-23 16:27:00,
2013-03-23 12:32:00,34.3,18.5,-100.00,WNW,302,9.0,19.0,52,0.01,,,0.01,meteohub,2013-03-23 16:32:00,
2013-03-23 12:37:00,35.1,18.7,-100.00,NW,313,16.0,18.0,51,0.01,,,0.01,meteohub,2013-03-23 16:37:00,
2013-03-23 12:42:00,35.2,19.4,-100.00,WNW,289,10.0,18.0,52,0.01,,,0.01,meteohub,2013-03-23 16:42:00,
2013-03-23 12:48:00,35.1,18.7,-100.00,NNW,334,8.0,19.0,51,0.01,,,0.01,meteohub,2013-03-23 16:48:00,
2013-03-23 12:53:00,35.2,19.4,-100.00,NW,306,10.0,19.0,52,0.00,,,0.01,meteohub,2013-03-23 16:53:00,
2013-03-23 12:58:00,35.6,19.2,-100.00,NW,313,7.0,19.0,51,0.01,,,0.02,meteohub,2013-03-23 16:58:00,
2013-03-23 13:04:00,36.3,18.0,-100.00,NW,307,15.0,18.0,47,0.01,,,0.02,meteohub,2013-03-23 17:04:00,
2013-03-23 13:09:00,35.2,17.6,-100.00,WNW,299,16.0,18.0,48,0.01,,,0.02,meteohub,2013-03-23 17:09:00,
2013-03-23 13:14:00,36.0,18.7,-100.00,WNW,302,15.0,25.0,49,0.01,,,0.02,meteohub,2013-03-23 17:14:00,
2013-03-23 13:19:00,36.0,18.7,-100.00,NW,305,8.0,25.0,49,0.01,,,0.02,meteohub,2013-03-23 17:19:00,
2013-03-23 13:24:00,36.1,18.3,-100.00,NNW,348,7.0,23.0,48,0.01,,,0.02,meteohub,2013-03-23 17:24:00,
2013-03-23 13:29:00,36.7,18.9,-100.00,NW,316,6.0,23.0,48,0.01,,,0.02,meteohub,2013-03-23 17:29:00,
2013-03-23 13:34:00,37.0,18.1,-100.00,NW,305,21.0,22.0,46,0.01,,,0.02,meteohub,2013-03-23 17:34:00,
2013-03-23 13:39:00,36.1,17.4,-100.00,NW,310,7.0,26.0,46,0.01,,,0.02,meteohub,2013-03-23 17:39:00,
2013-03-23 13:45:00,37.6,18.7,-100.00,NW,310,12.0,26.0,46,0.01,,,0.02,meteohub,2013-03-23 17:45:00,
2013-03-23 13:50:00,38.5,19.6,-100.00,NW,306,11.0,26.0,46,0.02,,,0.02,meteohub,2013-03-23 17:50:00,
2013-03-23 13:55:00,37.0,18.1,-100.00,WNW,288,13.0,18.0,46,0.02,,,0.03,meteohub,2013-03-23 17:55:00,
2013-03-23 14:00:00,37.0,19.2,-100.00,North,9,9.0,24.0,48,0.01,,,0.03,meteohub,2013-03-23 18:00:00,
2013-03-23 14:06:00,36.9,18.0,-100.00,NW,313,12.0,24.0,46,0.01,,,0.03,meteohub,2013-03-23 18:06:00,
2013-03-23 14:11:00,35.6,16.3,-100.00,NW,323,13.0,24.0,45,0.01,,,0.03,meteohub,2013-03-23 18:11:00,
2013-03-23 14:16:00,37.8,18.9,-100.00,NW,312,9.0,27.0,46,0.01,,,0.03,meteohub,2013-03-23 18:16:00,
2013-03-23 14:21:00,37.6,18.7,-100.00,NW,310,13.0,27.0,46,0.01,,,0.03,meteohub,2013-03-23 18:21:00,
2013-03-23 14:26:00,39.4,20.3,-100.00,North,2,6.0,25.0,46,0.01,,,0.03,meteohub,2013-03-23 18:26:00,
2013-03-23 14:31:00,38.8,19.8,-100.00,WNW,295,9.0,22.0,46,0.01,,,0.03,meteohub,2013-03-23 18:31:00,
2013-03-23 14:37:00,39.7,19.6,-100.00,WNW,299,12.0,22.0,44,0.01,,,0.03,meteohub,2013-03-23 18:37:00,
2013-03-23 14:42:00,40.3,21.2,-100.00,NW,309,13.0,28.0,46,0.01,,,0.03,meteohub,2013-03-23 18:42:00,
2013-03-23 14:47:00,38.1,19.2,-100.00,NW,313,15.0,28.0,46,0.00,,,0.03,meteohub,2013-03-23 18:47:00,
2013-03-23 14:52:00,39.0,19.9,-100.00,North,9,7.0,28.0,46,0.00,,,0.03,meteohub,2013-03-23 18:52:00,
2013-03-23 14:58:00,38.8,20.3,-100.00,WNW,298,13.0,23.0,47,0.00,,,0.03,meteohub,2013-03-23 18:58:00,
2013-03-23 15:03:00,37.0,18.1,-100.00,WNW,288,9.0,23.0,46,0.00,,,0.03,meteohub,2013-03-23 19:03:00,
2013-03-23 15:08:00,38.7,19.6,-100.00,NW,310,11.0,25.0,46,0.00,,,0.03,meteohub,2013-03-23 19:08:00,
2013-03-23 15:13:00,37.4,18.5,-100.00,NW,315,16.0,25.0,46,0.00,,,0.03,meteohub,2013-03-23 19:13:00,
2013-03-23 15:18:00,37.0,19.2,-100.00,NNW,334,5.0,28.0,48,0.00,,,0.03,meteohub,2013-03-23 19:18:00,
2013-03-23 15:23:00,36.7,18.9,-100.00,NNW,330,13.0,28.0,48,0.00,,,0.03,meteohub,2013-03-23 19:23:00,
2013-03-23 15:28:00,38.1,20.1,-100.00,WNW,299,7.0,28.0,48,0.00,,,0.03,meteohub,2013-03-23 19:28:00,
2013-03-23 15:33:00,36.9,18.5,-100.00,NW,317,7.0,21.0,47,0.00,,,0.03,meteohub,2013-03-23 19:33:00,
2013-03-23 15:38:00,38.5,21.0,-100.00,WNW,299,12.0,21.0,49,0.00,,,0.03,meteohub,2013-03-23 19:38:00,
2013-03-23 15:44:00,38.5,19.9,-100.00,NNW,338,8.0,23.0,47,0.00,,,0.03,meteohub,2013-03-23 19:44:00,
2013-03-23 15:49:00,36.0,18.7,-100.00,NW,320,8.0,23.0,49,0.00,,,0.03,meteohub,2013-03-23 19:49:00,
2013-03-23 15:54:00,37.0,19.2,-100.00,NW,312,17.0,23.0,48,0.00,,,0.03,meteohub,2013-03-23 19:54:00,
2013-03-23 15:59:00,38.5,21.0,-100.00,North,358,11.0,24.0,49,0.00,,,0.03,meteohub,2013-03-23 19:59:00,
2013-03-23 16:05:00,37.6,19.6,-100.00,NNW,334,12.0,24.0,48,0.00,,,0.03,meteohub,2013-03-23 20:05:00,
2013-03-23 16:10:00,36.1,18.3,-100.00,NW,310,17.0,24.0,48,0.00,,,0.03,meteohub,2013-03-23 20:10:00,
2013-03-23 16:15:00,36.7,18.9,-100.00,WNW,282,12.0,19.0,48,0.00,,,0.03,meteohub,2013-03-23 20:15:00,
2013-03-23 16:20:00,37.4,19.6,-100.00,NW,315,12.0,19.0,48,0.00,,,0.03,meteohub,2013-03-23 20:20:00,
2013-03-23 16:25:00,38.5,19.9,-100.00,WNW,303,9.0,24.0,47,0.00,,,0.03,meteohub,2013-03-23 20:25:00,
2013-03-23 16:31:00,38.7,19.6,-100.00,NW,309,17.0,24.0,46,0.00,,,0.03,meteohub,2013-03-23 20:31:00,
2013-03-23 16:36:00,38.5,19.9,-100.00,WNW,293,12.0,24.0,47,0.00,,,0.03,meteohub,2013-03-23 20:36:00,
2013-03-23 16:41:00,37.8,19.4,-100.00,NNW,343,14.0,24.0,47,0.00,,,0.03,meteohub,2013-03-23 20:41:00,
2013-03-23 16:46:00,38.1,20.1,-100.00,North,350,7.0,24.0,48,0.00,,,0.03,meteohub,2013-03-23 20:46:00,
2013-03-23 16:51:00,38.1,19.6,-100.00,NNW,329,9.0,24.0,47,0.00,,,0.03,meteohub,2013-03-23 20:51:00,
2013-03-23 16:57:00,37.8,19.8,-100.00,North,352,10.0,26.0,48,0.00,,,0.03,meteohub,2013-03-23 20:57:00,
2013-03-23 17:02:00,36.7,18.9,-100.00,NNW,347,13.0,26.0,48,0.00,,,0.03,meteohub,2013-03-23 21:02:00,
2013-03-23 17:07:00,38.1,20.7,-100.00,NNW,348,7.0,26.0,49,0.00,,,0.03,meteohub,2013-03-23 21:07:00,
2013-03-23 17:12:00,37.6,19.6,-100.00,NW,324,9.0,26.0,48,0.00,,,0.03,meteohub,2013-03-23 21:12:00,
2013-03-23 17:17:00,36.7,20.7,-100.00,NNW,334,13.0,22.0,52,0.00,,,0.03,meteohub,2013-03-23 21:17:00,
2013-03-23 17:22:00,37.8,20.8,-100.00,NW,316,9.0,22.0,50,0.00,,,0.03,meteohub,2013-03-23 21:22:00,
2013-03-23 17:28:00,37.4,19.9,-100.00,West,281,10.0,26.0,49,0.00,,,0.03,meteohub,2013-03-23 21:28:00,
2013-03-23 17:33:00,36.9,20.5,-100.00,NNW,338,10.0,26.0,51,0.00,,,0.03,meteohub,2013-03-23 21:33:00,
2013-03-23 17:38:00,38.1,21.2,-100.00,North,351,10.0,26.0,50,0.00,,,0.03,meteohub,2013-03-23 21:38:00,
2013-03-23 17:43:00,37.4,20.5,-100.00,West,272,13.0,23.0,50,0.00,,,0.03,meteohub,2013-03-23 21:43:00,
2013-03-23 17:48:00,37.6,20.7,-100.00,WNW,302,9.0,18.0,50,0.00,,,0.03,meteohub,2013-03-23 21:48:00,
2013-03-23 17:54:00,37.6,21.0,-100.00,WNW,298,9.0,18.0,51,0.00,,,0.03,meteohub,2013-03-23 21:54:00,
2013-03-23 17:59:00,37.4,20.5,-100.00,NW,306,7.0,18.0,50,0.00,,,0.03,meteohub,2013-03-23 21:59:00,
2013-03-23 18:04:00,36.7,20.3,-100.00,NW,326,10.0,22.0,51,0.00,,,0.03,meteohub,2013-03-23 22:04:00,
2013-03-23 18:09:00,36.9,19.9,-100.00,NW,317,10.0,22.0,50,0.00,,,0.03,meteohub,2013-03-23 22:09:00,
2013-03-23 18:15:00,36.1,20.3,-100.00,WNW,302,12.0,22.0,52,0.00,,,0.03,meteohub,2013-03-23 22:15:00,
2013-03-23 18:20:00,36.3,19.9,-100.00,NNW,345,8.0,22.0,51,0.00,,,0.03,meteohub,2013-03-23 22:20:00,
2013-03-23 18:25:00,35.1,19.2,-100.00,NW,307,8.0,22.0,52,0.00,,,0.03,meteohub,2013-03-23 22:25:00,
2013-03-23 18:30:00,36.3,19.9,-100.00,West,278,12.0,18.0,51,0.00,,,0.03,meteohub,2013-03-23 22:30:00,
2013-03-23 18:35:00,36.0,19.6,-100.00,NNW,340,8.0,18.0,51,0.00,,,0.03,meteohub,2013-03-23 22:35:00,
2013-03-23 18:41:00,36.1,19.8,-100.00,NNW,329,7.0,18.0,51,0.00,,,0.03,meteohub,2013-03-23 22:41:00,
2013-03-23 18:46:00,36.9,20.5,-100.00,NW,305,9.0,15.0,51,0.00,,,0.03,meteohub,2013-03-23 22:46:00,
2013-03-23 18:51:00,36.3,19.9,-100.00,NW,306,6.0,19.0,51,0.00,,,0.03,meteohub,2013-03-23 22:51:00,
2013-03-23 18:56:00,34.3,18.5,-100.00,NNW,347,7.0,19.0,52,0.00,,,0.03,meteohub,2013-03-23 22:56:00,
2013-03-23 19:01:00,35.2,18.9,-100.00,NW,312,7.0,19.0,51,0.00,,,0.03,meteohub,2013-03-23 23:01:00,
2013-03-23 19:06:00,34.5,18.7,-100.00,NW,315,8.0,17.0,52,0.00,,,0.03,meteohub,2013-03-23 23:06:00,
2013-03-23 19:11:00,35.2,19.8,-100.00,NW,322,5.0,17.0,53,0.00,,,0.03,meteohub,2013-03-23 23:11:00,
2013-03-23 19:16:00,35.6,20.1,-100.00,NNW,340,9.0,17.0,53,0.00,,,0.03,meteohub,2013-03-23 23:16:00,
2013-03-23 19:22:00,35.1,19.6,-100.00,NW,312,8.0,15.0,53,0.00,,,0.03,meteohub,2013-03-23 23:22:00,
2013-03-23 19:27:00,34.3,19.8,-100.00,NW,322,8.0,13.0,55,0.00,,,0.03,meteohub,2013-03-23 23:27:00,
2013-03-23 19:32:00,34.2,20.1,-100.00,NW,316,9.0,15.0,56,0.00,,,0.03,meteohub,2013-03-23 23:32:00,
2013-03-23 19:37:00,34.5,20.5,-100.00,WNW,289,12.0,15.0,56,0.00,,,0.03,meteohub,2013-03-23 23:37:00,
2013-03-23 19:43:00,34.2,20.1,-100.00,NW,323,7.0,15.0,56,0.00,,,0.03,meteohub,2013-03-23 23:43:00,
2013-03-23 19:48:00,34.3,20.3,-100.00,WNW,299,6.0,20.0,56,0.00,,,0.03,meteohub,2013-03-23 23:48:00,
2013-03-23 19:53:00,34.5,20.5,-100.00,NNW,334,6.0,20.0,56,0.00,,,0.03,meteohub,2013-03-23 23:53:00,
2013-03-23 19:58:00,34.5,20.8,-100.00,NNW,348,9.0,20.0,57,0.00,,,0.03,meteohub,2013-03-23 23:58:00,
2013-03-23 20:03:00,34.2,20.5,-100.00,NW,326,6.0,20.0,57,0.00,,,0.03,meteohub,2013-03-24 00:03:00,
2013-03-23 20:08:00,34.5,20.8,-100.00,NW,312,9.0,15.0,57,0.00,,,0.03,meteohub,2013-03-24 00:08:00,
2013-03-23 20:13:00,33.8,20.7,-100.00,NW,323,4.0,15.0,58,0.00,,,0.03,meteohub,2013-03-24 00:13:00,
2013-03-23 20:18:00,33.6,19.9,-100.00,NW,313,5.0,12.0,57,0.00,,,0.03,meteohub,2013-03-24 00:18:00,
2013-03-23 20:23:00,34.2,20.8,-100.00,NW,320,4.0,10.0,58,0.00,,,0.03,meteohub,2013-03-24 00:23:00,
2013-03-23 20:29:00,34.3,21.9,-100.00,WNW,295,3.0,9.0,60,0.00,,,0.03,meteohub,2013-03-24 00:29:00,
2013-03-23 20:34:00,33.8,21.0,-100.00,NW,305,4.0,9.0,59,0.00,,,0.03,meteohub,2013-03-24 00:34:00,
2013-03-23 20:39:00,33.1,19.9,-100.00,NW,319,8.0,9.0,58,0.00,,,0.03,meteohub,2013-03-24 00:39:00,
2013-03-23 20:44:00,33.6,20.8,-100.00,North,0,3.0,8.0,59,0.00,,,0.03,meteohub,2013-03-24 00:44:00,
2013-03-23 20:49:00,33.3,19.8,-100.00,NNW,338,4.0,8.0,57,0.00,,,0.03,meteohub,2013-03-24 00:49:00,
2013-03-23 20:55:00,33.3,20.1,-100.00,NW,324,0.0,8.0,58,0.00,,,0.03,meteohub,2013-03-24 00:55:00,
2013-03-23 21:00:00,33.4,20.3,-100.00,NNW,329,3.0,7.0,58,0.00,,,0.03,meteohub,2013-03-24 01:00:00,
2013-03-23 21:05:00,33.8,20.7,-100.00,NNW,343,4.0,7.0,58,0.00,,,0.03,meteohub,2013-03-24 01:05:00,
2013-03-23 21:10:00,33.3,20.1,-100.00,NNW,348,3.0,7.0,58,0.00,,,0.03,meteohub,2013-03-24 01:10:00,
2013-03-23 21:15:00,33.1,20.7,-100.00,NNW,340,2.0,6.0,60,0.00,,,0.03,meteohub,2013-03-24 01:15:00,
2013-03-23 21:20:00,33.4,20.3,-100.00,WNW,292,4.0,6.0,58,0.00,,,0.03,meteohub,2013-03-24 01:20:00,
2013-03-23 21:25:00,33.1,19.9,-100.00,NW,316,3.0,6.0,58,0.00,,,0.03,meteohub,2013-03-24 01:25:00,
2013-03-23 21:30:00,33.8,21.0,-100.00,NNW,337,3.0,6.0,59,0.00,,,0.03,meteohub,2013-03-24 01:30:00,
2013-03-23 21:36:00,33.4,20.3,-100.00,NW,315,4.0,7.0,58,0.00,,,0.03,meteohub,2013-03-24 01:36:00,
2013-03-23 21:41:00,32.5,19.4,-100.00,NNW,345,3.0,7.0,58,0.00,,,0.03,meteohub,2013-03-24 01:41:00,
2013-03-23 21:46:00,33.3,20.5,-100.00,NNW,333,4.0,8.0,59,0.00,,,0.03,meteohub,2013-03-24 01:46:00,
2013-03-23 21:51:00,33.1,19.6,-100.00,NW,313,4.0,10.0,57,0.00,,,0.03,meteohub,2013-03-24 01:51:00,
2013-03-23 21:56:00,33.1,19.9,-100.00,NNW,327,2.0,10.0,58,0.00,,,0.03,meteohub,2013-03-24 01:56:00,
2013-03-23 22:02:00,33.8,20.1,-100.00,NW,315,5.0,10.0,57,0.00,,,0.03,meteohub,2013-03-24 02:02:00,
2013-03-23 22:07:00,34.3,20.7,-100.00,North,355,0.0,11.0,57,0.00,,,0.03,meteohub,2013-03-24 02:07:00,
2013-03-23 22:12:00,33.4,20.3,-100.00,NNW,336,5.0,11.0,58,0.00,,,0.03,meteohub,2013-03-24 02:12:00,
2013-03-23 22:17:00,33.4,19.8,-100.00,NW,310,6.0,11.0,57,0.00,,,0.03,meteohub,2013-03-24 02:17:00,
2013-03-23 22:22:00,33.1,19.9,-100.00,NNW,327,4.0,11.0,58,0.00,,,0.03,meteohub,2013-03-24 02:22:00,
2013-03-23 22:27:00,32.7,19.6,-100.00,NNW,345,3.0,10.0,58,0.00,,,0.03,meteohub,2013-03-24 02:27:00,
2013-03-23 22:32:00,33.3,20.5,-100.00,WNW,298,10.0,10.0,59,0.00,,,0.03,meteohub,2013-03-24 02:32:00,
2013-03-23 22:38:00,33.4,20.7,-100.00,NW,312,5.0,9.0,59,0.00,,,0.03,meteohub,2013-03-24 02:38:00,
2013-03-23 22:43:00,32.0,18.9,-100.00,NW,316,9.0,9.0,58,0.00,,,0.03,meteohub,2013-03-24 02:43:00,
2013-03-23 22:48:00,32.2,19.0,-100.00,NW,317,7.0,11.0,58,0.00,,,0.03,meteohub,2013-03-24 02:48:00,
2013-03-23 22:53:00,32.5,19.8,-100.00,NW,306,5.0,11.0,59,0.00,,,0.03,meteohub,2013-03-24 02:53:00,
2013-03-23 22:58:00,32.0,19.2,-100.00,NNW,327,5.0,11.0,59,0.00,,,0.03,meteohub,2013-03-24 02:58:00,
2013-03-23 23:03:00,31.8,19.0,-100.00,NNW,327,5.0,11.0,59,0.00,,,0.03,meteohub,2013-03-24 03:03:00,
2013-03-23 23:08:00,31.6,19.0,-100.00,WNW,298,5.0,10.0,59,0.00,,,0.03,meteohub,2013-03-24 03:08:00,
2013-03-23 23:13:00,32.5,20.1,-100.00,NW,322,5.0,11.0,60,0.00,,,0.03,meteohub,2013-03-24 03:13:00,
2013-03-23 23:19:00,31.8,19.6,-100.00,NW,324,6.0,11.0,60,0.00,,,0.03,meteohub,2013-03-24 03:19:00,
2013-03-23 23:24:00,31.5,19.6,-100.00,NW,316,5.0,11.0,61,0.00,,,0.03,meteohub,2013-03-24 03:24:00,
2013-03-23 23:29:00,31.5,19.6,-100.00,NW,313,4.0,9.0,61,0.00,,,0.03,meteohub,2013-03-24 03:29:00,
2013-03-23 23:34:00,31.6,19.8,-100.00,NW,305,3.0,8.0,61,0.00,,,0.03,meteohub,2013-03-24 03:34:00,
2013-03-23 23:39:00,31.3,19.0,-100.00,WNW,299,0.0,8.0,60,0.00,,,0.03,meteohub,2013-03-24 03:39:00,
2013-03-23 23:44:00,30.7,18.9,-100.00,NW,317,3.0,7.0,61,0.00,,,0.03,meteohub,2013-03-24 03:44:00,
2013-03-23 23:49:00,31.3,19.4,-100.00,NW,317,4.0,6.0,61,0.00,,,0.03,meteohub,2013-03-24 03:49:00,
2013-03-23 23:54:00,30.7,18.9,-100.00,WNW,298,4.0,6.0,61,0.00,,,0.03,meteohub,2013-03-24 03:54:00,